| time (UTC) | temp C | wind direction | speed KPH | gust KPH | rain 1hr cm | rain 24hr cm | rain mn cm | humidity % | barometer mb |
| 20260506004626 | 11 | 121 | 3.2 | 11.3 | 0.00 | 0.08 | 0.05 | 39 | 1013.6 |
| 20260506004123 | 12 | 38 | 3.2 | 12.9 | 0.00 | 0.08 | 0.05 | 39 | 1013.5 |
| 20260506003625 | 12 | 176 | 4.8 | 12.9 | 0.00 | 0.08 | 0.05 | 38 | 1013.4 |
| 20260506003144 | 12 | 345 | 3.2 | 12.9 | 0.00 | 0.08 | 0.05 | 39 | 1013.4 |
| 20260506002627 | 12 | 330 | 3.2 | 17.7 | 0.00 | 0.08 | 0.05 | 38 | 1013.4 |
| 20260506002126 | 12 | 119 | 4.8 | 17.7 | 0.00 | 0.08 | 0.05 | 38 | 1013.4 |
| 20260506001614 | 12 | 339 | 1.6 | 17.7 | 0.00 | 0.08 | 0.05 | 38 | 1013.3 |
| 20260506001134 | 12 | 298 | 4.8 | 14.5 | 0.00 | 0.08 | 0.05 | 38 | 1013.4 |
| 20260506000618 | 12 | 19 | 3.2 | 9.7 | 0.00 | 0.08 | 0.05 | 37 | 1013.4 |
| 20260506000121 | 12 | 337 | 4.8 | 19.3 | 0.00 | 0.08 | 0.05 | 38 | 1013.3 |
| 20260505235644 | 12 | 33 | 3.2 | 19.3 | 0.00 | 0.08 | 0.05 | 37 | 1013.3 |
| 20260505235121 | 12 | 4 | 4.8 | 19.3 | 0.00 | 0.08 | 0.05 | 38 | 1013.2 |
| 20260505234646 | 12 | 73 | 6.4 | 19.3 | 0.00 | 0.08 | 0.05 | 37 | 1013.2 |
| 20260505234146 | 12 | 75 | 4.8 | 16.1 | 0.00 | 0.08 | 0.05 | 37 | 1013.2 |
| 20260505233630 | 12 | 78 | 3.2 | 17.7 | 0.00 | 0.08 | 0.05 | 36 | 1013.2 |
| 20260505233128 | 12 | 355 | 6.4 | 17.7 | 0.00 | 0.08 | 0.05 | 36 | 1013.1 |
| 20260505232633 | 12 | 285 | 3.2 | 22.5 | 0.00 | 0.08 | 0.05 | 37 | 1013.0 |
| 20260505232136 | 13 | 43 | 6.4 | 22.5 | 0.00 | 0.08 | 0.05 | 37 | 1013.0 |
| 20260505231624 | 13 | 52 | 4.8 | 19.3 | 0.00 | 0.08 | 0.05 | 37 | 1013.0 |
| 20260505231123 | 13 | 321 | 8.0 | 19.3 | 0.00 | 0.08 | 0.05 | 37 | 1012.9 |
| 20260505230633 | 13 | 354 | 6.4 | 22.5 | 0.00 | 0.08 | 0.05 | 36 | 1012.8 |
| 20260505230116 | 13 | 48 | 3.2 | 22.5 | 0.00 | 0.08 | 0.05 | 37 | 1012.8 |
| 20260505225623 | 13 | 93 | 6.4 | 16.1 | 0.00 | 0.08 | 0.05 | 37 | 1012.8 |
| 20260505225121 | 13 | 352 | 6.4 | 16.1 | 0.00 | 0.08 | 0.05 | 36 | 1012.8 |
| 20260505224626 | 13 | 243 | 4.8 | 12.9 | 0.00 | 0.08 | 0.05 | 36 | 1012.6 |
| 20260505224125 | 14 | 301 | 3.2 | 12.9 | 0.00 | 0.08 | 0.05 | 36 | 1012.7 |
| 20260505223629 | 13 | 9 | 3.2 | 12.9 | 0.00 | 0.08 | 0.05 | 36 | 1012.7 |
| 20260505223127 | 13 | 285 | 4.8 | 17.7 | 0.00 | 0.08 | 0.05 | 36 | 1012.8 |
| 20260505222651 | 13 | 45 | 4.8 | 12.9 | 0.00 | 0.08 | 0.05 | 36 | 1012.7 |
| 20260505222128 | 13 | 238 | 4.8 | 12.9 | 0.00 | 0.08 | 0.05 | 36 | 1012.7 |
| 20260505221635 | 13 | 223 | 4.8 | 16.1 | 0.00 | 0.08 | 0.05 | 37 | 1012.5 |
| 20260505221116 | 13 | 301 | 4.8 | 14.5 | 0.00 | 0.08 | 0.05 | 36 | 1012.6 |
| 20260505220625 | 13 | 318 | 4.8 | 14.5 | 0.00 | 0.08 | 0.05 | 36 | 1012.6 |
| 20260505220125 | 13 | 350 | 4.8 | 14.5 | 0.00 | 0.08 | 0.05 | 36 | 1012.5 |
| 20260505215631 | 13 | 343 | 3.2 | 14.5 | 0.00 | 0.08 | 0.05 | 37 | 1012.5 |
| 20260505215149 | 14 | 331 | 6.4 | 12.9 | 0.00 | 0.08 | 0.05 | 37 | 1012.6 |
| 20260505214616 | 14 | 343 | 4.8 | 12.9 | 0.00 | 0.08 | 0.05 | 39 | 1012.6 |
| 20260505214135 | 14 | 73 | 3.2 | 12.9 | 0.00 | 0.08 | 0.05 | 38 | 1012.5 |
| 20260505213619 | 13 | 357 | 3.2 | 9.7 | 0.00 | 0.08 | 0.05 | 37 | 1012.6 |
| 20260505213117 | 13 | 19 | 3.2 | 12.9 | 0.00 | 0.08 | 0.05 | 38 | 1012.7 |
| 20260505212620 | 13 | 73 | 8.0 | 12.9 | 0.00 | 0.08 | 0.05 | 39 | 1012.8 |
| 20260505212117 | 13 | 52 | 1.6 | 11.3 | 0.00 | 0.08 | 0.05 | 38 | 1012.8 |
| 20260505211620 | 13 | 347 | 4.8 | 11.3 | 0.00 | 0.08 | 0.05 | 38 | 1012.9 |
| 20260505211138 | 14 | 58 | 6.4 | 11.3 | 0.00 | 0.08 | 0.05 | 39 | 1012.8 |
| 20260505210621 | 14 | 271 | 3.2 | 17.7 | 0.00 | 0.08 | 0.05 | 40 | 1012.8 |
| 20260505210123 | 13 | 129 | 9.7 | 17.7 | 0.00 | 0.08 | 0.05 | 38 | 1012.9 |
| 20260505205646 | 14 | 19 | 6.4 | 17.7 | 0.00 | 0.08 | 0.05 | 37 | 1013.0 |
| 20260505205124 | 14 | 342 | 6.4 | 17.7 | 0.00 | 0.08 | 0.05 | 37 | 1012.9 |
| 20260505204631 | 14 | 259 | 6.4 | 19.3 | 0.00 | 0.08 | 0.05 | 37 | 1013.0 |
| 20260505204133 | 14 | 330 | 6.4 | 22.5 | 0.00 | 0.08 | 0.05 | 37 | 1013.1 |
| 20260505203623 | 15 | 9 | 4.8 | 22.5 | 0.00 | 0.08 | 0.05 | 37 | 1013.0 |
| 20260505203120 | 15 | 309 | 9.7 | 14.5 | 0.00 | 0.08 | 0.05 | 38 | 1013.2 |
| 20260505202624 | 15 | 290 | 6.4 | 14.5 | 0.00 | 0.08 | 0.05 | 37 | 1013.1 |
| 20260505202122 | 15 | 48 | 6.4 | 19.3 | 0.00 | 0.08 | 0.05 | 38 | 1013.1 |
| 20260505201627 | 14 | 287 | 6.4 | 22.5 | 0.00 | 0.08 | 0.05 | 37 | 1013.1 |
| 20260505201149 | 14 | 63 | 8.0 | 22.5 | 0.00 | 0.08 | 0.05 | 36 | 1013.2 |
| 20260505200655 | 14 | 301 | 6.4 | 19.3 | 0.00 | 0.08 | 0.05 | 36 | 1013.2 |
| 20260505200135 | 15 | 226 | 6.4 | 14.5 | 0.00 | 0.08 | 0.05 | 36 | 1013.0 |
| 20260505195618 | 15 | 72 | 4.8 | 14.5 | 0.00 | 0.08 | 0.05 | 37 | 1013.1 |
| 20260505195139 | 15 | 9 | 3.2 | 16.1 | 0.00 | 0.08 | 0.05 | 38 | 1013.1 |
| 20260505194625 | 14 | 65 | 3.2 | 16.1 | 0.00 | 0.08 | 0.05 | 38 | 1013.1 |
| 20260505194143 | 14 | 64 | 4.8 | 14.5 | 0.00 | 0.08 | 0.05 | 39 | 1013.2 |
| 20260505193624 | 14 | 321 | 3.2 | 17.7 | 0.00 | 0.08 | 0.05 | 39 | 1013.3 |
| 20260505193126 | 14 | 43 | 4.8 | 17.7 | 0.00 | 0.08 | 0.05 | 38 | 1013.4 |
| 20260505192630 | 13 | 79 | 6.4 | 14.5 | 0.00 | 0.08 | 0.05 | 38 | 1013.3 |
| 20260505192132 | 13 | 45 | 6.4 | 11.3 | 0.00 | 0.08 | 0.05 | 39 | 1013.3 |
| 20260505191619 | 13 | 19 | 4.8 | 12.9 | 0.00 | 0.08 | 0.05 | 37 | 1013.5 |
| 20260505191117 | 13 | 329 | 4.8 | 17.7 | 0.00 | 0.08 | 0.05 | 38 | 1013.4 |
| 20260505190627 | 14 | 2 | 4.8 | 17.7 | 0.00 | 0.08 | 0.05 | 40 | 1013.5 |
| 20260505190126 | 13 | 356 | 6.4 | 14.5 | 0.00 | 0.08 | 0.05 | 39 | 1013.5 |
| 20260505185629 | 13 | 266 | 4.8 | 20.9 | 0.00 | 0.08 | 0.05 | 38 | 1013.5 |
| 20260505185127 | 14 | 9 | 8.0 | 20.9 | 0.00 | 0.08 | 0.05 | 37 | 1013.7 |
| 20260505184631 | 14 | 104 | 6.4 | 17.7 | 0.00 | 0.08 | 0.05 | 39 | 1013.4 |
| 20260505184128 | 15 | 279 | 3.2 | 12.9 | 0.00 | 0.08 | 0.05 | 37 | 1013.5 |
| 20260505183631 | 14 | 125 | 3.2 | 16.1 | 0.00 | 0.08 | 0.05 | 37 | 1013.6 |
| 20260505183126 | 14 | 93 | 1.6 | 16.1 | 0.00 | 0.08 | 0.05 | 38 | 1013.7 |
| 20260505182630 | 14 | 360 | 4.8 | 12.9 | 0.00 | 0.08 | 0.05 | 38 | 1013.7 |
| 20260505182148 | 13 | 53 | 4.8 | 11.3 | 0.00 | 0.08 | 0.05 | 42 | 1013.7 |
| 20260505181632 | 13 | 39 | 4.8 | 11.3 | 0.00 | 0.08 | 0.05 | 39 | 1013.7 |
| 20260505181117 | 13 | 297 | 6.4 | 11.3 | 0.00 | 0.08 | 0.05 | 39 | 1013.6 |
| 20260505180624 | 13 | 344 | 6.4 | 17.7 | 0.00 | 0.08 | 0.05 | 40 | 1013.6 |
| 20260505180124 | 13 | 269 | 4.8 | 17.7 | 0.00 | 0.08 | 0.05 | 41 | 1013.7 |
| 20260505175627 | 13 | 296 | 6.4 | 16.1 | 0.00 | 0.08 | 0.05 | 42 | 1013.7 |
| 20260505175124 | 12 | 355 | 1.6 | 16.1 | 0.00 | 0.08 | 0.05 | 46 | 1013.6 |
| 20260505174632 | 13 | 249 | 8.0 | 14.5 | 0.00 | 0.08 | 0.05 | 45 | 1013.6 |
| 20260505174135 | 12 | 54 | 3.2 | 14.5 | 0.00 | 0.08 | 0.05 | 45 | 1013.7 |
| 20260505173619 | 12 | 143 | 3.2 | 12.9 | 0.00 | 0.08 | 0.05 | 46 | 1013.8 |
| 20260505173117 | 13 | 239 | 8.0 | 12.9 | 0.00 | 0.08 | 0.05 | 47 | 1013.8 |
| 20260505172622 | 12 | 9 | 4.8 | 9.7 | 0.00 | 0.08 | 0.05 | 46 | 1014.0 |
| 20260505172120 | 12 | 254 | 3.2 | 9.7 | 0.00 | 0.08 | 0.05 | 47 | 1013.9 |
| 20260505171624 | 12 | 14 | 3.2 | 9.7 | 0.00 | 0.08 | 0.05 | 49 | 1014.0 |
| 20260505171126 | 12 | 14 | 4.8 | 9.7 | 0.00 | 0.08 | 0.05 | 50 | 1014.1 |
| 20260505170633 | 12 | 46 | 3.2 | 6.4 | 0.00 | 0.08 | 0.05 | 49 | 1014.1 |
| 20260505170155 | 12 | 19 | 0.0 | 8.0 | 0.00 | 0.08 | 0.05 | 49 | 1014.1 |
| 20260505165617 | 11 | 327 | 3.2 | 8.0 | 0.00 | 0.08 | 0.05 | 50 | 1014.2 |
| 20260505165135 | 11 | 333 | 4.8 | 8.0 | 0.00 | 0.08 | 0.05 | 49 | 1014.1 |
| 20260505164622 | 11 | 35 | 1.6 | 9.7 | 0.00 | 0.08 | 0.05 | 51 | 1014.1 |
| 20260505164120 | 11 | 227 | 4.8 | 8.0 | 0.00 | 0.08 | 0.05 | 54 | 1014.2 |
| 20260505163627 | 11 | 216 | 1.6 | 8.0 | 0.00 | 0.08 | 0.05 | 54 | 1014.3 |
| 20260505163127 | 11 | 3 | 3.2 | 8.0 | 0.00 | 0.08 | 0.05 | 56 | 1014.0 |
| 20260505162630 | 11 | 300 | 1.6 | 6.4 | 0.00 | 0.08 | 0.05 | 57 | 1013.9 |
| 20260505162128 | 11 | 312 | 3.2 | 6.4 | 0.00 | 0.08 | 0.05 | 57 | 1013.8 |
| 20260505161651 | 10 | 313 | 1.6 | 9.7 | 0.00 | 0.08 | 0.05 | 58 | 1013.8 |
| 20260505161128 | 10 | 256 | 3.2 | 9.7 | 0.00 | 0.08 | 0.05 | 58 | 1013.7 |
| 20260505160631 | 10 | 273 | 3.2 | 11.3 | 0.00 | 0.08 | 0.05 | 59 | 1013.6 |
| 20260505160129 | 10 | 335 | 6.4 | 11.3 | 0.00 | 0.08 | 0.05 | 58 | 1013.8 |
| 20260505153130 | 9 | 316 | 4.8 | 11.3 | 0.00 | 0.08 | 0.05 | 66 | 1013.7 |
| 20260505152633 | 9 | 334 | 4.8 | 11.3 | 0.00 | 0.08 | 0.05 | 66 | 1013.6 |
| 20260505152127 | 9 | 9 | 0.0 | 11.3 | 0.00 | 0.08 | 0.05 | 68 | 1013.5 |
| 20260505151632 | 9 | 345 | 1.6 | 11.3 | 0.00 | 0.08 | 0.05 | 66 | 1013.4 |
| 20260505151129 | 9 | 327 | 3.2 | 9.7 | 0.00 | 0.08 | 0.05 | 66 | 1013.3 |
| 20260505150633 | 9 | 344 | 3.2 | 8.0 | 0.00 | 0.08 | 0.05 | 67 | 1013.3 |
| 20260505150136 | 9 | 304 | 6.4 | 8.0 | 0.00 | 0.08 | 0.05 | 65 | 1013.2 |
| 20260505140118 | 9 | 293 | 3.2 | 8.0 | 0.00 | 0.08 | 0.05 | 64 | 1013.1 |
| 20260505130152 | 9 | 259 | 1.6 | 4.8 | 0.00 | 0.08 | 0.05 | 68 | 1012.2 |
| 20260505124623 | 9 | 325 | 0.0 | 6.4 | 0.00 | 0.08 | 0.05 | 67 | 1011.8 |
| 20260505124121 | 8 | 19 | 0.0 | 1.6 | 0.00 | 0.08 | 0.05 | 70 | 1011.7 |
| 20260505123625 | 8 | 32 | 0.0 | 3.2 | 0.00 | 0.08 | 0.05 | 68 | 1011.6 |
| 20260505123121 | 8 | 32 | 0.0 | 3.2 | 0.00 | 0.08 | 0.05 | 70 | 1011.5 |
| 20260505122641 | 8 | 67 | 0.0 | 0.0 | 0.00 | 0.08 | 0.05 | 70 | 1011.4 |
| 20260505122119 | 8 | 67 | 0.0 | 0.0 | 0.00 | 0.08 | 0.05 | 71 | 1011.2 |
| 20260505121623 | 8 | 67 | 0.0 | 1.6 | 0.00 | 0.08 | 0.05 | 71 | 1011.2 |
| 20260505121119 | 8 | 67 | 0.0 | 1.6 | 0.00 | 0.08 | 0.05 | 68 | 1011.1 |
| 20260505120622 | 8 | 67 | 0.0 | 0.0 | 0.00 | 0.08 | 0.05 | 68 | 1011.0 |
| 20260505120141 | 8 | 67 | 0.0 | 3.2 | 0.00 | 0.08 | 0.05 | 68 | 1011.0 |
| 20260505115643 | 8 | 71 | 1.6 | 4.8 | 0.00 | 0.08 | 0.05 | 69 | 1010.7 |
| 20260505115121 | 8 | 71 | 0.0 | 4.8 | 0.00 | 0.08 | 0.05 | 69 | 1010.7 |
| 20260505114629 | 8 | 33 | 0.0 | 4.8 | 0.00 | 0.08 | 0.05 | 71 | 1010.5 |
| 20260505114129 | 7 | 44 | 0.0 | 3.2 | 0.00 | 0.08 | 0.05 | 73 | 1010.5 |
| 20260505113635 | 7 | 85 | 0.0 | 4.8 | 0.00 | 0.08 | 0.05 | 75 | 1010.5 |
| 20260505113136 | 7 | 85 | 0.0 | 4.8 | 0.00 | 0.08 | 0.05 | 76 | 1010.4 |
| 20260505112640 | 7 | 163 | 0.0 | 3.2 | 0.00 | 0.08 | 0.05 | 78 | 1010.5 |
| 20260505112121 | 7 | 167 | 0.0 | 3.2 | 0.00 | 0.08 | 0.05 | 80 | 1010.5 |
| 20260505111628 | 7 | 167 | 0.0 | 0.0 | 0.00 | 0.08 | 0.05 | 81 | 1010.6 |
| 20260505111127 | 7 | 167 | 0.0 | 0.0 | 0.00 | 0.08 | 0.05 | 82 | 1010.6 |
| 20260505110633 | 7 | 167 | 0.0 | 3.2 | 0.00 | 0.08 | 0.05 | 82 | 1010.7 |
| 20260505110133 | 7 | 167 | 0.0 | 3.2 | 0.00 | 0.08 | 0.05 | 83 | 1010.7 |
| 20260505102118 | 8 | 167 | 0.0 | 0.0 | 0.00 | 0.08 | 0.05 | 87 | 1010.9 |
| 20260505101623 | 8 | 167 | 0.0 | 0.0 | 0.00 | 0.08 | 0.05 | 87 | 1010.8 |
| 20260505101122 | 8 | 167 | 0.0 | 0.0 | 0.00 | 0.08 | 0.05 | 87 | 1010.9 |
| 20260505100629 | 8 | 167 | 0.0 | 0.0 | 0.00 | 0.08 | 0.05 | 87 | 1010.9 |
| 20260505100132 | 8 | 167 | 0.0 | 0.0 | 0.00 | 0.08 | 0.05 | 87 | 1010.9 |
| 20260505095634 | 8 | 167 | 0.0 | 0.0 | 0.00 | 0.08 | 0.05 | 87 | 1010.8 |
| 20260505095131 | 8 | 167 | 0.0 | 0.0 | 0.00 | 0.08 | 0.05 | 87 | 1010.8 |
| 20260505094636 | 8 | 167 | 0.0 | 0.0 | 0.00 | 0.08 | 0.05 | 87 | 1010.7 |
| 20260505094134 | 8 | 167 | 0.0 | 1.6 | 0.00 | 0.08 | 0.05 | 87 | 1010.6 |
| 20260505093623 | 8 | 167 | 0.0 | 3.2 | 0.00 | 0.08 | 0.05 | 86 | 1010.5 |
| 20260505093121 | 8 | 167 | 0.0 | 3.2 | 0.00 | 0.08 | 0.05 | 86 | 1011.4 |
| 20260505092628 | 8 | 167 | 0.0 | 1.6 | 0.00 | 0.08 | 0.05 | 86 | 1011.3 |
| 20260505092126 | 8 | 167 | 0.0 | 3.2 | 0.00 | 0.08 | 0.05 | 87 | 1011.0 |
| 20260505091627 | 8 | 167 | 0.0 | 3.2 | 0.00 | 0.08 | 0.05 | 87 | 1011.1 |
| 20260505091124 | 8 | 167 | 0.0 | 0.0 | 0.00 | 0.08 | 0.05 | 88 | 1011.0 |
| 20260505090627 | 8 | 167 | 0.0 | 1.6 | 0.00 | 0.08 | 0.05 | 88 | 1011.0 |
| 20260505090149 | 8 | 167 | 0.0 | 3.2 | 0.00 | 0.08 | 0.05 | 88 | 1010.9 |
| 20260505085633 | 8 | 167 | 0.0 | 3.2 | 0.00 | 0.08 | 0.05 | 88 | 1010.8 |
| 20260505085129 | 8 | 167 | 0.0 | 1.6 | 0.00 | 0.08 | 0.05 | 88 | 1010.8 |
| 20260505084633 | 8 | 167 | 0.0 | 1.6 | 0.00 | 0.08 | 0.05 | 89 | 1010.8 |
| 20260505084130 | 8 | 167 | 0.0 | 6.4 | 0.00 | 0.08 | 0.05 | 89 | 1010.9 |
| 20260505083634 | 8 | 167 | 1.6 | 6.4 | 0.00 | 0.08 | 0.05 | 89 | 1010.8 |
| 20260505083132 | 8 | 167 | 1.6 | 3.2 | 0.00 | 0.08 | 0.05 | 89 | 1010.7 |
| 20260505082635 | 8 | 167 | 0.0 | 1.6 | 0.00 | 0.08 | 0.05 | 90 | 1010.5 |
| 20260505082153 | 8 | 167 | 0.0 | 1.6 | 0.00 | 0.08 | 0.05 | 90 | 1010.5 |
| 20260505081634 | 8 | 167 | 0.0 | 1.6 | 0.00 | 0.08 | 0.05 | 90 | 1010.3 |
| 20260505081135 | 8 | 167 | 0.0 | 1.6 | 0.00 | 0.08 | 0.05 | 90 | 1010.3 |
| 20260505080639 | 8 | 167 | 0.0 | 1.6 | 0.00 | 0.08 | 0.05 | 89 | 1010.1 |
| 20260505080118 | 8 | 167 | 0.0 | 3.2 | 0.00 | 0.08 | 0.05 | 89 | 1009.9 |
| 20260505075624 | 8 | 167 | 0.0 | 3.2 | 0.00 | 0.08 | 0.05 | 89 | 1009.8 |
| 20260505075125 | 8 | 167 | 1.6 | 3.2 | 0.00 | 0.08 | 0.05 | 89 | 1009.9 |
| 20260505074647 | 8 | 167 | 0.0 | 1.6 | 0.00 | 0.08 | 0.05 | 89 | 1010.0 |
| 20260505074124 | 8 | 167 | 0.0 | 3.2 | 0.00 | 0.08 | 0.05 | 89 | 1010.1 |
| 20260505073627 | 8 | 167 | 0.0 | 3.2 | 0.03 | 0.08 | 0.05 | 89 | 1010.2 |
| 20260505073133 | 8 | 167 | 0.0 | 1.6 | 0.03 | 0.08 | 0.05 | 89 | 1010.1 |
| 20260505072656 | 8 | 167 | 0.0 | 1.6 | 0.03 | 0.08 | 0.05 | 88 | 1010.0 |
| 20260505072135 | 8 | 167 | 0.0 | 3.2 | 0.05 | 0.08 | 0.05 | 88 | 1009.9 |
| 20260505071620 | 8 | 167 | 0.0 | 3.2 | 0.05 | 0.08 | 0.05 | 87 | 1010.1 |
| 20260505071123 | 8 | 167 | 0.0 | 3.2 | 0.05 | 0.08 | 0.05 | 87 | 1010.0 |
| 20260505070625 | 8 | 167 | 1.6 | 3.2 | 0.05 | 0.08 | 0.05 | 87 | 1010.1 |
| 20260505070128 | 8 | 167 | 1.6 | 3.2 | 0.05 | 0.08 | 0.05 | 85 | 1009.9 |
| 20260505065632 | 8 | 98 | 0.0 | 4.8 | 0.05 | 0.08 | 0.05 | 84 | 1009.3 |
| 20260505065124 | 8 | 64 | 1.6 | 4.8 | 0.05 | 0.08 | 0.05 | 85 | 1009.4 |
| 20260505064647 | 8 | 278 | 0.0 | 3.2 | 0.05 | 0.08 | 0.05 | 84 | 1009.7 |
| 20260505064123 | 8 | 278 | 1.6 | 3.2 | 0.05 | 0.08 | 0.05 | 83 | 1009.9 |
| 20260505063631 | 8 | 278 | 0.0 | 3.2 | 0.03 | 0.05 | 0.03 | 81 | 1009.7 |
| 20260505063128 | 9 | 278 | 0.0 | 3.2 | 0.03 | 0.05 | 0.03 | 80 | 1009.7 |
| 20260505062634 | 9 | 278 | 1.6 | 3.2 | 0.03 | 0.05 | 0.03 | 79 | 1009.8 |
| 20260505062133 | 9 | 278 | 0.0 | 4.8 | 0.00 | 0.03 | 0.00 | 77 | 1010.5 |
| 20260505061620 | 9 | 241 | 0.0 | 4.8 | 0.00 | 0.03 | 0.00 | 76 | 1010.5 |
| 20260505061120 | 9 | 77 | 0.0 | 8.0 | 0.00 | 0.03 | 0.00 | 74 | 1010.2 |
| 20260505060622 | 9 | 39 | 3.2 | 8.0 | 0.00 | 0.03 | 0.00 | 73 | 1009.9 |
| 20260505060121 | 9 | 36 | 3.2 | 6.4 | 0.00 | 0.03 | 0.00 | 73 | 1009.8 |
| 20260505055627 | 9 | 51 | 3.2 | 9.7 | 0.03 | 0.03 | 0.00 | 73 | 1009.9 |
| 20260505055122 | 9 | 9 | 3.2 | 9.7 | 0.03 | 0.03 | 0.00 | 73 | 1010.0 |
| 20260505054650 | 9 | 29 | 0.0 | 8.0 | 0.03 | 0.03 | 0.00 | 74 | 1010.0 |
| 20260505054127 | 9 | 112 | 3.2 | 8.0 | 0.03 | 0.03 | 0.00 | 74 | 1010.3 |
| 20260505053631 | 9 | 36 | 1.6 | 8.0 | 0.03 | 0.03 | 0.00 | 73 | 1010.1 |
| 20260505053127 | 9 | 68 | 4.8 | 8.0 | 0.03 | 0.03 | 0.00 | 73 | 1010.0 |
| 20260505052635 | 9 | 35 | 3.2 | 8.0 | 0.03 | 0.03 | 0.00 | 74 | 1009.5 |
| 20260505052154 | 9 | 108 | 1.6 | 8.0 | 0.03 | 0.03 | 0.00 | 73 | 1009.7 |
| 20260505051621 | 9 | 57 | 4.8 | 8.0 | 0.03 | 0.03 | 0.00 | 72 | 1009.7 |
| 20260505051121 | 10 | 62 | 3.2 | 11.3 | 0.03 | 0.03 | 0.00 | 72 | 1010.0 |
| 20260505050627 | 10 | 27 | 6.4 | 11.3 | 0.03 | 0.03 | 0.00 | 70 | 1010.0 |
| 20260505050133 | 10 | 36 | 1.6 | 6.4 | 0.03 | 0.03 | 0.00 | 69 | 1010.4 |
| 20260505041627 | 12 | 48 | 3.2 | 14.5 | 0.00 | 0.00 | 0.00 | 50 | 1010.1 |
| 20260505041129 | 12 | 32 | 3.2 | 11.3 | 0.00 | 0.00 | 0.00 | 49 | 1010.3 |
| 20260505040632 | 12 | 48 | 6.4 | 11.3 | 0.00 | 0.00 | 0.00 | 48 | 1010.4 |
| 20260505040151 | 12 | 357 | 4.8 | 16.1 | 0.00 | 0.00 | 0.00 | 48 | 1010.0 |
| 20260505035654 | 12 | 115 | 4.8 | 17.7 | 0.00 | 0.00 | 0.00 | 47 | 1009.8 |
| 20260505035136 | 12 | 19 | 6.4 | 14.5 | 0.00 | 0.00 | 0.00 | 47 | 1009.5 |
| 20260505034618 | 12 | 25 | 6.4 | 12.9 | 0.00 | 0.00 | 0.00 | 47 | 1009.5 |
| 20260505034119 | 12 | 53 | 6.4 | 16.1 | 0.00 | 0.00 | 0.00 | 47 | 1009.7 |
| 20260505033644 | 12 | 354 | 9.7 | 16.1 | 0.00 | 0.00 | 0.00 | 47 | 1009.5 |
| 20260505033120 | 12 | 110 | 1.6 | 14.5 | 0.00 | 0.00 | 0.00 | 47 | 1009.4 |
| 20260505032644 | 12 | 72 | 4.8 | 19.3 | 0.00 | 0.00 | 0.00 | 47 | 1009.3 |
| 20260505032123 | 13 | 9 | 8.0 | 19.3 | 0.00 | 0.00 | 0.00 | 47 | 1009.3 |
| 20260505031627 | 13 | 50 | 8.0 | 14.5 | 0.00 | 0.00 | 0.00 | 47 | 1009.5 |
| 20260505031124 | 13 | 46 | 3.2 | 19.3 | 0.00 | 0.00 | 0.00 | 46 | 1009.5 |
| 20260505030630 | 13 | 14 | 6.4 | 19.3 | 0.00 | 0.00 | 0.00 | 45 | 1009.1 |
| 20260505030133 | 13 | 295 | 9.7 | 17.7 | 0.00 | 0.00 | 0.00 | 45 | 1009.1 |
| 20260505025620 | 13 | 14 | 6.4 | 17.7 | 0.00 | 0.00 | 0.00 | 45 | 1008.9 |
| 20260505025136 | 13 | 73 | 6.4 | 22.5 | 0.00 | 0.00 | 0.00 | 45 | 1008.9 |
| 20260505024620 | 13 | 38 | 12.9 | 22.5 | 0.00 | 0.00 | 0.00 | 45 | 1008.9 |
| 20260505024118 | 13 | 9 | 8.0 | 24.1 | 0.00 | 0.00 | 0.00 | 46 | 1008.4 |
| 20260505023623 | 13 | 38 | 9.7 | 24.1 | 0.00 | 0.00 | 0.00 | 46 | 1008.5 |
| 20260505023126 | 13 | 42 | 3.2 | 24.1 | 0.00 | 0.00 | 0.00 | 46 | 1008.4 |
| 20260505022617 | 13 | 29 | 8.0 | 20.9 | 0.00 | 0.00 | 0.00 | 45 | 1008.5 |
| 20260505022116 | 13 | 252 | 11.3 | 22.5 | 0.00 | 0.00 | 0.00 | 45 | 1008.2 |
| 20260505021641 | 14 | 28 | 8.0 | 22.5 | 0.00 | 0.00 | 0.00 | 44 | 1008.0 |
| 20260505021122 | 14 | 103 | 11.3 | 25.7 | 0.00 | 0.00 | 0.00 | 44 | 1007.8 |
| 20260505020628 | 14 | 32 | 11.3 | 25.7 | 0.00 | 0.00 | 0.00 | 44 | 1008.1 |
| 20260505020127 | 14 | 19 | 14.5 | 25.7 | 0.00 | 0.00 | 0.00 | 45 | 1008.0 |
| 20260505015638 | 14 | 48 | 8.0 | 25.7 | 0.00 | 0.00 | 0.00 | 45 | 1008.0 |
| 20260505015117 | 14 | 354 | 6.4 | 22.5 | 0.00 | 0.00 | 0.00 | 45 | 1008.0 |
| 20260505014644 | 14 | 63 | 11.3 | 29.0 | 0.00 | 0.00 | 0.00 | 45 | 1007.6 |
| 20260505014139 | 14 | 19 | 11.3 | 29.0 | 0.00 | 0.00 | 0.00 | 45 | 1007.5 |
| 20260505013642 | 15 | 43 | 4.8 | 25.7 | 0.00 | 0.00 | 0.00 | 44 | 1007.3 |
| 20260505013118 | 15 | 71 | 9.7 | 27.4 | 0.00 | 0.00 | 0.00 | 43 | 1007.6 |
| 20260505012626 | 15 | 69 | 6.4 | 29.0 | 0.00 | 0.00 | 0.00 | 42 | 1007.2 |
| 20260505012146 | 16 | 36 | 11.3 | 29.0 | 0.00 | 0.00 | 0.00 | 41 | 1007.2 |
| 20260505011632 | 16 | 324 | 6.4 | 27.4 | 0.00 | 0.00 | 0.00 | 41 | 1006.8 |
| 20260505011131 | 16 | 92 | 8.0 | 24.1 | 0.00 | 0.00 | 0.00 | 41 | 1007.1 |
| 20260505010636 | 16 | 52 | 9.7 | 24.1 | 0.00 | 0.00 | 0.00 | 40 | 1006.9 |
| 20260505010122 | 16 | 52 | 3.2 | 24.1 | 0.00 | 0.00 | 0.00 | 39 | 1007.0 |
| 20260505005629 | 17 | 33 | 9.7 | 22.5 | 0.00 | 0.00 | 0.00 | 38 | 1006.8 |
| 20260505005126 | 17 | 44 | 11.3 | 27.4 | 0.00 | 0.00 | 0.00 | 38 | 1006.7 |